Location: Nora Junction
(43.1400°N, 93.0163°W)
Time: 22:25:52
(UTC+00:00)

Cosmos 1315 Rocket - Pass Details

Date: 18 November 2025
Orbit: 497 x 513 km, 81.2° (Epoch: 14 December)

Event Time Altitude Azimuth Distance (km) Brightness Sun altitude
Rises 12:32:02 0° 351° (N) 2,644 6.0 -7.0°
Reaches altitude 10° 12:34:11 10° 352° (N) 1,752 5.1 -6.7°
Maximum altitude 12:38:02 80° 79° (ENE) 528 2.8 -6.0°
Drops below altitude 10° 12:41:51 10° 168° (SSE) 1,732 5.9 -5.4°
Sets 12:43:58 0° 169° (S) 2,612 6.8 -5.0°
